Home > Weather > Little Rock > Past weeks

Flag for USA Past Weather in Little Rock, Arkansas, USA — Yesterday and Last 2 Weeks

Now
93 °F

Passing clouds.


Feels Like: 104 °F
Forecast: 77 / 93 °F
Wind: 8 mph from South

Location: Adams Field

Current Time: Aug 24, 2016 at 6:29:40 PM

Latest Report: Aug 24, 2016 at 5:53 PM


Visibility: 10 mi

Pressure: 30.05 "Hg

Humidity: 56%

Dew Point: 75 °F

Location of Little RockLocation

Past Weather in Little Rock — Graph

°F

Little Rock Temperature Yesterday

Maximum temperature yesterday: 91 °F (at 2:53 PM)
Minimum temperature yesterday: 75 °F (at 5:53 AM)
Average temperature yesterday: 83 °F

High & Low Weather Summary for the Past Weeks

 TemperatureHumidityPressure
High95 °F (Aug 9, 4:53 PM)94% (Aug 14, 2:53 AM)30.20 "Hg (Aug 14, 2:53 AM)
Low68 °F (Aug 22, 4:53 AM)49% (Aug 21, 12:53 PM)29.76 "Hg (Aug 12, 5:53 PM)
Average81 °F78%30.00 "Hg
* Reported Aug 9 4:53 PM — Aug 24 4:53 PM, Little Rock, Weather by CustomWeather, © 2016

Note: Actual official high and low records may vary slightly from our data, if they occured in-between our weather recording intervals... More about our weather records

Advertising

Little Rock Weather History for the Previous 24 Hours

Scroll right to see more
 ConditionsComfort  
Time TempWeatherWind HumidityBarometerVisibility
4:53 PM
Wed, Aug 24
94 °FScattered clouds.10 mph52%30.06 "Hg10 mi
3:53 PM95 °FScattered clouds.9 mph52%30.07 "Hg10 mi
2:53 PM95 °FScattered clouds.13 mph52%30.10 "Hg10 mi
1:53 PM94 °FScattered clouds.10 mph54%30.12 "Hg10 mi
12:53 PM91 °FScattered clouds.8 mph60%30.13 "Hg10 mi
11:53 AM91 °FScattered clouds.8 mph60%30.14 "Hg10 mi
10:53 AM89 °FPassing clouds.8 mph65%30.14 "Hg10 mi
9:53 AM86 °FScattered clouds.8 mph70%30.14 "Hg10 mi
8:53 AM84 °FScattered clouds.8 mph77%30.13 "Hg10 mi
7:53 AM80 °FScattered clouds.No wind85%30.14 "Hg10 mi
6:53 AM77 °FPassing clouds.3 mph88%30.14 "Hg10 mi
5:53 AM78 °FPassing clouds.No wind84%30.12 "Hg10 mi
4:53 AM78 °FClear.3 mph84%30.11 "Hg10 mi
3:53 AM79 °FClear.7 mph82%30.10 "Hg10 mi
2:53 AM79 °FClear.5 mph84%30.11 "Hg10 mi
1:53 AM81 °FClear.10 mph79%30.11 "Hg10 mi
12:53 AM82 °FClear.13 mph77%30.11 "Hg10 mi
11:53 PM
Tue, Aug 23
82 °FClear.13 mph77%30.11 "Hg10 mi
10:53 PM82 °FClear.10 mph79%30.11 "Hg10 mi
9:53 PM82 °FPassing clouds.7 mph79%30.11 "Hg10 mi
8:53 PM83 °FPassing clouds.7 mph77%30.10 "Hg10 mi
7:53 PM84 °FPartly sunny.5 mph74%30.09 "Hg10 mi
6:53 PM89 °FBroken clouds.6 mph63%30.09 "Hg10 mi
Weather by CustomWeather, © 2016

See weather overviewHow to use our weather pages